Location: Banksville Park
(38.5557°N, 75.1182°W)
Time: 17:29:38
(UTC+00:00)

IDEFIX/ARIANE 42P - Pass Details

Date: 19 September 2020
Orbit: 785 x 802 km, 98.4° (Epoch: 31 October)

Event Time Altitude Azimuth Distance (km) Brightness Sun altitude
Rises 08:29:53 0° 7° (N) 3,321 6.2 -26.5°
Reaches altitude 10° 08:32:15 10° 4° (N) 2,387 5.4 -26.1°
Enters shadow 08:36:52 53° 311° (NW) 984 2.8 -25.3°
